When you browse on this site, cookies collect data to enhance your experience and personalize the content and advertising you see.
Visit our Privacy Policy to learn more. By continuing to use the site, you agree to this use of cookies and data.
  • In Hungary
  • List of Countries
  • For 7 days
  • Water Temperature
  • Weather Map
  • News
  • Weather Widgets
  • user-avatar
    Login

    Hourly Weather Starobzhegokay

    Today, 23 October, Wednesday

    Time Temperature Precipitation Wind Pressure Humidity
    00:00 +14°C° 0 mm 2 mps 764 mmHg 59%
    01:00 +14°C° 0 mm 2 mps 764 mmHg 61%
    02:00 +14°C° 0 mm 2 mps 764 mmHg 63%
    03:00 +13°C° 0 mm 2 mps 764 mmHg 66%
    04:00 +13°C° 0 mm 1 mps 765 mmHg 68%
    05:00 +12°C° 0 mm 1 mps 765 mmHg 70%
    06:00 +12°C° 0 mm 1 mps 765 mmHg 71%
    07:00 +13°C° 0 mm 1 mps 765 mmHg 67%
    08:00 +14°C° 0 mm 1 mps 765 mmHg 63%
    09:00 +15°C° 0 mm 1 mps 765 mmHg 59%
    10:00 +18°C° 0 mm 1 mps 765 mmHg 52%
    11:00 +19°C° 0 mm 2 mps 765 mmHg 46%
    12:00 +20°C° 0 mm 2 mps 765 mmHg 40%
    13:00 +21°C° 0 mm 2 mps 764 mmHg 38%
    14:00 +23°C° 0 mm 2 mps 764 mmHg 36%
    15:00 +24°C° 0 mm 2 mps 764 mmHg 33%
    16:00 +21°C° 0 mm 2 mps 764 mmHg 37%
    17:00 +20°C° 0 mm 2 mps 764 mmHg 41%
    18:00 +18°C° 0 mm 2 mps 764 mmHg 44%
    19:00 +18°C° 0 mm 2 mps 764 mmHg 46%
    20:00 +17°C° 0 mm 2 mps 764 mmHg 48%
    21:00 +17°C° 0 mm 2 mps 764 mmHg 50%
    22:00 +16°C° 0 mm 2 mps 764 mmHg 51%
    23:00 +16°C° 0 mm 1 mps 764 mmHg 53%

    Tomorrow, 24 October, Thursday

    Time Temperature Precipitation Wind Pressure Humidity
    00:00 +15°C° 0 mm 1 mps 764 mmHg 55%
    01:00 +15°C° 0 mm 1 mps 764 mmHg 56%
    02:00 +14°C° 0 mm 1 mps 764 mmHg 58%
    03:00 +14°C° 0 mm 1 mps 764 mmHg 60%
    04:00 +14°C° 0 mm 1 mps 764 mmHg 61%
    05:00 +14°C° 0 mm 1 mps 764 mmHg 63%
    06:00 +13°C° 0 mm 1 mps 764 mmHg 64%
    07:00 +14°C° 0 mm 1 mps 764 mmHg 62%
    08:00 +15°C° 0 mm 1 mps 764 mmHg 59%
    09:00 +16°C° 0 mm 1 mps 764 mmHg 56%
    10:00 +19°C° 0 mm 1 mps 764 mmHg 50%
    11:00 +21°C° 0 mm 1 mps 764 mmHg 45%
    12:00 +22°C° 0 mm 1 mps 764 mmHg 40%
    13:00 +23°C° 0 mm 1 mps 763 mmHg 38%
    14:00 +23°C° 0 mm 1 mps 763 mmHg 35%
    15:00 +24°C° 0 mm 1 mps 763 mmHg 33%
    16:00 +23°C° 0 mm 1 mps 763 mmHg 37%
    17:00 +21°C° 0 mm 1 mps 763 mmHg 40%
    18:00 +20°C° 0 mm 1 mps 762 mmHg 43%
    19:00 +19°C° 0 mm 1 mps 763 mmHg 45%
    20:00 +17°C° 0 mm 0 mps 763 mmHg 46%
    21:00 +16°C° 0 mm 0 mps 763 mmHg 47%
    22:00 +16°C° 0 mm 0 mps 763 mmHg 49%
    23:00 +15°C° 0 mm 0 mps 762 mmHg 50%

    Day after tomorrow, 25 October, Friday

    Time Temperature Precipitation Wind Pressure Humidity
    00:00 +15°C° 0 mm 0 mps 762 mmHg 52%
    01:00 +14°C° 0 mm 0 mps 762 mmHg 54%
    02:00 +14°C° 0 mm 0 mps 762 mmHg 55%
    03:00 +13°C° 0 mm 0 mps 762 mmHg 57%
    04:00 +13°C° 0 mm 0 mps 762 mmHg 58%
    05:00 +13°C° 0 mm 0 mps 762 mmHg 59%
    06:00 +12°C° 0 mm 0 mps 762 mmHg 60%
    07:00 +14°C° 0 mm 0 mps 762 mmHg 57%
    08:00 +15°C° 0 mm 0 mps 762 mmHg 54%
    09:00 +16°C° 0 mm 0 mps 762 mmHg 50%
    10:00 +17°C° 0 mm 0 mps 762 mmHg 46%
    11:00 +21°C° 0 mm 1 mps 762 mmHg 41%
    12:00 +23°C° 0 mm 1 mps 762 mmHg 36%
    13:00 +23°C° 0 mm 1 mps 761 mmHg 34%
    14:00 +24°C° 0 mm 1 mps 761 mmHg 33%
    15:00 +24°C° 0 mm 1 mps 761 mmHg 31%
    16:00 +23°C° 0 mm 1 mps 761 mmHg 34%
    17:00 +21°C° 0 mm 1 mps 761 mmHg 38%
    18:00 +20°C° 0 mm 1 mps 761 mmHg 41%
    19:00 +19°C° 0 mm 1 mps 761 mmHg 44%
    20:00 +18°C° 0 mm 1 mps 761 mmHg 46%
    21:00 +18°C° 0 mm 1 mps 761 mmHg 49%
    22:00 +16°C° 0 mm 1 mps 761 mmHg 51%
    23:00 +16°C° 0 mm 1 mps 761 mmHg 53%

    26 October, Saturday

    Time Temperature Precipitation Wind Pressure Humidity
    00:00 +14°C° 0 mm 0 mps 761 mmHg 55%
    01:00 +15°C° 0 mm 1 mps 761 mmHg 57%
    02:00 +14°C° 0 mm 1 mps 761 mmHg 58%
    03:00 +14°C° 0 mm 1 mps 761 mmHg 60%
    04:00 +14°C° 0 mm 1 mps 762 mmHg 62%
    05:00 +13°C° 0 mm 1 mps 762 mmHg 63%
    06:00 +13°C° 0 mm 1 mps 762 mmHg 64%
    07:00 +14°C° 0 mm 1 mps 762 mmHg 61%
    08:00 +15°C° 0 mm 1 mps 762 mmHg 57%
    09:00 +16°C° 0 mm 1 mps 762 mmHg 53%
    10:00 +19°C° 0 mm 1 mps 762 mmHg 48%
    11:00 +21°C° 0 mm 1 mps 762 mmHg 43%
    12:00 +22°C° 0 mm 1 mps 763 mmHg 37%
    13:00 +23°C° 0 mm 1 mps 762 mmHg 36%
    14:00 +23°C° 0 mm 1 mps 762 mmHg 35%
    15:00 +24°C° 0 mm 2 mps 762 mmHg 34%
    16:00 +22°C° 0 mm 1 mps 762 mmHg 38%
    17:00 +21°C° 0 mm 1 mps 762 mmHg 43%
    18:00 +19°C° 0 mm 1 mps 762 mmHg 47%
    19:00 +18°C° 0 mm 1 mps 762 mmHg 51%
    20:00 +16°C° 0 mm 1 mps 763 mmHg 55%
    21:00 +16°C° 0 mm 1 mps 763 mmHg 58%
    22:00 +15°C° 0 mm 1 mps 763 mmHg 61%
    23:00 +14°C° 0 mm 1 mps 763 mmHg 64%

    27 October, Sunday

    Time Temperature Precipitation Wind Pressure Humidity
    00:00 +14°C° 0 mm 1 mps 763 mmHg 67%
    01:00 +14°C° 0 mm 1 mps 763 mmHg 69%
    02:00 +13°C° 0 mm 1 mps 763 mmHg 70%
    03:00 +13°C° 0 mm 1 mps 763 mmHg 71%
    04:00 +13°C° 0 mm 1 mps 764 mmHg 73%
    05:00 +12°C° 0 mm 1 mps 764 mmHg 74%
    06:00 +12°C° 0 mm 1 mps 764 mmHg 75%
    07:00 +13°C° 0 mm 1 mps 764 mmHg 71%
    08:00 +14°C° 0 mm 1 mps 764 mmHg 66%
    09:00 +15°C° 0 mm 1 mps 764 mmHg 61%
    10:00 +18°C° 0 mm 1 mps 764 mmHg 55%
    11:00 +20°C° 0 mm 1 mps 764 mmHg 49%
    12:00 +22°C° 0 mm 1 mps 764 mmHg 44%
    13:00 +21°C° 0 mm 2 mps 764 mmHg 41%
    14:00 +23°C° 0 mm 2 mps 763 mmHg 39%
    15:00 +23°C° 0 mm 2 mps 763 mmHg 37%
    16:00 +21°C° 0 mm 2 mps 763 mmHg 41%
    17:00 +19°C° 0 mm 2 mps 763 mmHg 45%
    18:00 +19°C° 0 mm 1 mps 763 mmHg 50%
    19:00 +18°C° 0 mm 1 mps 763 mmHg 55%
    20:00 +16°C° 0 mm 1 mps 763 mmHg 61%
    21:00 +15°C° 0 mm 1 mps 763 mmHg 66%
    22:00 +15°C° 0 mm 1 mps 763 mmHg 68%
    23:00 +15°C° 0 mm 1 mps 763 mmHg 70%

    28 October, Monday

    Time Temperature Precipitation Wind Pressure Humidity
    00:00 +14°C° 0 mm 1 mps 763 mmHg 72%
    01:00 +14°C° 0 mm 1 mps 763 mmHg 73%
    02:00 +14°C° 0 mm 1 mps 763 mmHg 75%
    03:00 +14°C° 0 mm 1 mps 763 mmHg 76%
    04:00 +13°C° 0 mm 1 mps 763 mmHg 79%
    05:00 +13°C° 0 mm 1 mps 763 mmHg 82%
    06:00 +13°C° 0 mm 1 mps 763 mmHg 85%
    07:00 +14°C° 0 mm 1 mps 763 mmHg 82%
    08:00 +15°C° 0 mm 1 mps 763 mmHg 79%
    09:00 +18°C° 0 mm 1 mps 763 mmHg 76%
    10:00 +19°C° 0 mm 1 mps 763 mmHg 69%
    11:00 +21°C° 0 mm 1 mps 762 mmHg 61%
    12:00 +23°C° 0 mm 1 mps 762 mmHg 54%
    13:00 +23°C° 0 mm 1 mps 762 mmHg 52%
    14:00 +24°C° 0 mm 1 mps 761 mmHg 50%
    15:00 +24°C° 0 mm 1 mps 761 mmHg 48%
    16:00 +23°C° 0 mm 1 mps 761 mmHg 53%
    17:00 +21°C° 0 mm 1 mps 761 mmHg 59%
    18:00 +18°C° 0 mm 0 mps 761 mmHg 65%
    19:00 +19°C° 0 mm 1 mps 761 mmHg 68%
    20:00 +18°C° 0 mm 1 mps 761 mmHg 71%
    21:00 +18°C° 0 mm 1 mps 761 mmHg 74%
    22:00 +16°C° 0 mm 1 mps 760 mmHg 76%
    23:00 +16°C° 0 mm 1 mps 760 mmHg 78%

    29 October, Tuesday

    Time Temperature Precipitation Wind Pressure Humidity
    00:00 +15°C° 0 mm 1 mps 760 mmHg 80%
    01:00 +15°C° 0 mm 1 mps 760 mmHg 80%
    02:00 +15°C° 0 mm 1 mps 760 mmHg 81%
    03:00 +14°C° 0 mm 1 mps 760 mmHg 82%
    04:00 +14°C° 0 mm 1 mps 760 mmHg 82%
    05:00 +14°C° 0 mm 1 mps 760 mmHg 83%
    06:00 +13°C° 0 mm 1 mps 760 mmHg 83%
    07:00 +14°C° 0 mm 1 mps 760 mmHg 78%
    08:00 +15°C° 0 mm 1 mps 759 mmHg 73%
    09:00 +16°C° 0 mm 1 mps 759 mmHg 67%
    10:00 +19°C° 0 mm 1 mps 759 mmHg 59%
    11:00 +21°C° 0 mm 1 mps 759 mmHg 51%
    12:00 +23°C° 0 mm 2 mps 759 mmHg 43%
    13:00 +24°C° 0 mm 1 mps 759 mmHg 41%
    14:00 +24°C° 0 mm 1 mps 758 mmHg 39%
    15:00 +25°C° 0 mm 1 mps 758 mmHg 36%
    16:00 +23°C° 0 mm 1 mps 758 mmHg 40%
    17:00 +22°C° 0 mm 1 mps 758 mmHg 43%
    18:00 +21°C° 0 mm 1 mps 758 mmHg 47%
    19:00 +20°C° 0 mm 1 mps 758 mmHg 49%
    20:00 +20°C° 0 mm 1 mps 758 mmHg 50%
    21:00 +18°C° 0 mm 2 mps 758 mmHg 52%
    22:00 +19°C° 0 mm 1 mps 758 mmHg 54%
    23:00 +18°C° 0 mm 1 mps 758 mmHg 56%
    Show more